RH
82 83 83 82 82 81 81 84 84 85 86 88 88 88 86 87 70 23 24 30 45 64 62 39 23 33 32 35 42 46 49 59 54 63 54 58 52 44 41 43 43 40 45 45 33
84 83 83 83 82 83 84 84 84 85 86 87 86 87 87 87 38 25 37 53 66 73 32 27 28 33 34 34 38 48 53 44 45 55 51 57 49 40 41 42 42 42 41 33 30
83 81 82 82 82 83 84 84 84 86 85 85 86 86 85 84 25 25 50 61 63 67 36 31 28 33 38 37 44 50 46 49 37 38 43 55 51 38 42 46 41 39 40 35 31
82 82 82 82 84 85 84 84 86 86 84 86 86 85 84 38 31 23 55 55 52 52 30 26 28 34 38 38 41 50 42 40 41 42 47 52 45 44 43 50 39 37 39 34 32
80 81 82 83 84 85 84 86 84 84 85 86 83 82 45 27 24 21 53 38 21 22 25 28 29 32 34 37 40 42 42 38 38 44 46 43 45 46 43 38 40 40 38 36 32
82 84 84 83 85 86 86 84 84 84 84 84 82 83 30 28 23 22 21 21 22 23 28 26 29 32 35 40 40 43 42 39 38 40 39 42 42 42 37 41 42 39 41 39 34
83 84 85 86 86 86 85 83 84 84 84 83 79 39 30 22 24 22 21 25 25 26 29 30 28 27 34 40 39 39 36 36 37 38 39 40 38 41 35 41 41 43 44 41 36
83 85 85 84 84 85 86 85 84 84 84 83 76 34 28 23 24 22 22 24 23 24 25 27 27 30 34 39 36 41 45 44 41 38 40 37 39 30 35 39 38 43 48 45 42
83 82 83 84 85 86 86 86 83 82 82 80 40 36 25 29 24 24 25 24 24 25 25 22 28 36 37 40 41 43 46 51 36 38 42 41 40 35 45 43 39 42 47 46 44
80 80 83 84 86 86 88 83 75 63 41 32 19 26 22 25 25 23 25 25 26 28 26 28 37 41 43 41 33 27 47 40 44 37 45 47 43 33 35 42 41 40 43 48 44
81 82 84 84 83 87 64 27 23 26 26 23 25 26 24 22 23 24 24 25 27 25 41 33 34 34 34 40 37 32 35 31 29 31 43 45 42 34 31 44 42 40 43 43 42
82 85 87 86 86 88 51 33 40 36 32 31 27 25 25 25 24 24 24 27 29 31 32 31 34 30 28 34 30 29 32 31 29 42 45 44 39 28 26 38 36 34 39 39 39
86 86 88 86 89 57 48 50 49 38 36 27 27 26 26 24 26 26 24 31 33 35 32 31 28 28 27 31 31 34 32 33 30 34 43 45 42 35 32 42 40 41 38 39 37
89 88 89 85 46 45 46 49 46 30 34 28 30 25 27 28 27 25 27 26 32 35 32 31 31 32 34 31 29 33 30 34 36 38 37 43 40 38 30 33 36 35 42 38 41
92 89 86 79 41 45 48 48 43 27 34 26 30 24 29 26 28 30 28 28 28 31 33 29 35 37 36 30 28 28 40 40 43 56 60 63 51 37 39 26 21 26 33 36 36
94 91 89 52 49 57 51 46 32 33 34 35 33 32 32 32 30 32 30 29 34 36 38 36 35 30 30 31 31 38 36 49 64 58 60 60 53 40 30 25 25 29 30 30 32
94 91 70 47 43 55 47 38 36 42 28 36 34 36 36 35 33 36 36 41 32 37 41 33 41 38 34 36 38 34 33 40 38 59 52 63 56 39 29 27 28 26 26 29 33
93 86 67 49 61 50 41 35 55 31 42 34 36 37 38 35 35 37 41 40 42 40 44 41 31 40 35 32 34 39 33 37 37 49 42 48 44 30 28 28 29 31 33 35 34
82 66 60 64 57 44 36 42 31 33 36 38 36 44 41 38 39 40 48 41 38 36 35 39 34 41 37 34 36 41 47 49 44 64 61 45 35 24 20 20 20 26 32 30 32
62 59 60 65 57 45 41 46 35 39 37 37 36 36 43 39 54 58 39 34 39 36 45 44 38 40 41 37 38 40 36 40 48 45 46 44 43 30 22 18 20 20 24 26 32
72 52 52 71 47 46 47 46 39 37 40 38 38 39 39 41 42 43 34 35 39 40 41 43 41 36 43 39 38 41 40 44 46 54 51 59 41 28 22 20 21 22 22 29 30
75 48 53 51 53 71 53 46 50 42 45 43 44 40 39 40 44 44 41 38 42 37 40 43 39 40 29 38 37 39 37 40 42 38 63 68 39 18 17 19 26 25 27 24 31
80 83 72 49 60 62 58 50 45 44 43 43 43 44 47 45 45 44 45 47 45 40 41 40 41 45 41 43 39 42 38 38 42 50 46 42 34 24 26 23 19 22 23 24 28
77 50 70 74 76 54 68 54 52 51 49 47 46 52 55 58 51 50 48 50 47 42 55 43 45 38 44 40 40 41 37 39 37 50 35 42 29 23 22 23 21 20 23 28 27
85 61 80 75 78 75 68 62 56 54 55 54 56 52 53 61 57 58 55 52 53 57 53 45 54 50 42 38 40 38 40 37 42 32 39 31 32 26 24 24 24 24 29 32 29
66 86 80 84 74 79 76 70 63 62 62 57 57 55 56 57 48 52 54 67 52 68 57 55 58 66 61 48 48 51 50 44 40 38 37 34 36 26 26 31 30 33 34 34 34
99 93 73 75 69 79 76 66 62 63 59 54 57 64 62 56 56 54 52 51 51 52 59 60 64 66 58 61 54 65 51 41 45 47 41 42 28 29 30 32 33 34 36 33 33
Wind_Speed
4 5 6 6 5 5 7 9 9 9 9 10 12 14 12 12 9 3 3 5 5 10 5 4 5 3 4 4 4 3 5 2 5 7 5 4 6 2 1 5 3 7 3 1 9
4 3 5 7 6 6 6 8 9 10 9 10 11 11 11 10 2 2 4 8 9 3 1 3 2 2 4 2 3 4 4 8 5 5 4 6 6 7 4 4 5 4 3 6 12
4 3 4 6 8 7 7 8 9 10 10 10 11 10 10 4 4 2 4 9 9 4 2 1 2 2 2 2 2 2 5 2 3 3 4 4 3 6 6 6 8 11 7 10 9
3 3 4 6 8 9 7 8 10 10 10 10 11 10 9 1 1 2 7 8 6 6 2 2 2 3 3 2 0 1 2 2 1 0 4 5 4 5 9 7 3 9 8 12 16
2 2 5 7 9 9 9 9 10 11 11 11 11 10 0 3 5 2 7 8 3 3 4 0 3 4 3 3 1 2 2 1 1 2 2 3 5 9 11 12 3 7 10 15 16
3 5 7 7 9 10 10 10 9 11 11 10 10 8 2 2 1 3 5 3 4 4 3 4 4 3 5 2 2 1 2 3 2 2 2 3 4 2 7 3 9 9 11 12 17
6 5 6 8 9 11 11 10 10 10 10 8 7 3 1 10 1 3 3 0 1 2 2 1 3 3 4 2 2 1 4 4 5 3 3 3 8 13 8 4 8 10 9 10 15
4 4 6 8 10 11 11 12 12 10 9 6 4 1 5 2 0 2 3 1 4 2 3 4 6 7 4 2 5 4 3 4 1 4 1 3 13 8 3 8 12 10 9 9 13
4 5 7 9 10 11 12 13 12 8 5 2 1 2 7 3 1 1 0 0 3 2 4 4 6 4 3 3 5 6 4 3 8 7 2 4 10 5 3 5 10 9 10 11 10
6 6 7 10 10 11 13 9 6 4 2 2 2 4 3 2 2 3 1 2 2 1 3 5 6 3 3 4 4 4 4 5 6 4 3 4 19 17 9 7 12 10 10 10 13
6 8 8 10 10 9 8 4 5 4 4 5 4 3 2 4 1 1 1 2 2 6 1 3 4 6 9 7 3 2 3 6 6 4 5 9 15 22 17 8 14 15 13 13 16
7 8 9 10 9 6 1 5 2 3 5 2 3 4 3 1 3 2 1 1 2 2 0 5 6 7 3 3 4 4 4 8 7 2 5 8 19 22 19 11 13 16 13 15 11
10 10 10 12 8 2 3 2 2 2 2 6 3 3 3 4 3 3 1 2 1 2 4 6 4 3 3 2 2 3 5 5 6 5 4 8 11 7 5 3 5 9 9 8 14
11 11 11 13 3 1 1 2 1 1 6 5 1 2 1 2 3 1 1 2 0 3 2 6 3 1 2 4 6 4 4 3 4 5 4 4 12 7 7 10 7 10 10 14 12
10 9 10 5 4 2 1 1 3 4 4 1 2 1 0 3 2 1 1 3 3 2 4 8 2 3 3 6 5 7 1 1 1 1 4 2 0 11 4 8 11 10 11 12 13
11 9 10 1 2 0 2 3 4 8 5 1 1 1 1 1 2 1 2 4 1 1 2 7 1 4 5 2 1 1 2 4 4 2 2 4 4 8 4 7 8 6 7 10 10
10 8 1 1 1 1 2 5 6 4 3 1 1 1 1 2 3 1 1 1 3 3 4 5 3 1 1 1 2 5 5 6 6 3 7 2 2 12 14 12 8 11 11 9 8
9 3 1 2 2 2 4 6 2 4 5 2 1 1 2 1 2 1 1 3 2 3 1 0 7 3 2 3 3 4 6 5 5 3 6 1 8 10 7 8 8 9 10 10 11
4 2 3 3 2 3 6 3 7 5 1 1 2 1 3 2 1 3 3 3 4 8 6 3 6 0 0 1 2 2 3 3 1 1 3 5 9 10 8 7 7 9 7 11 11
3 2 2 6 2 5 5 5 4 4 1 2 2 4 2 2 1 0 2 3 2 5 2 2 5 1 1 1 3 3 3 2 3 5 6 6 6 9 10 12 11 13 10 11 8
4 3 3 5 3 6 4 7 5 4 1 3 3 2 5 2 4 3 4 4 1 2 2 4 3 4 1 6 8 2 2 4 2 5 5 5 7 7 8 12 11 12 13 10 11
3 2 3 2 4 1 3 5 2 2 0 2 1 5 5 3 3 4 6 4 2 5 4 1 4 5 11 1 3 3 5 6 5 6 5 3 11 14 18 13 6 12 11 14 10
2 1 3 4 3 2 4 4 3 2 4 3 3 5 2 3 2 4 2 1 1 1 2 3 2 5 10 3 3 2 4 3 2 3 7 7 13 4 7 13 17 16 16 14 10
3 1 4 5 0 6 2 4 3 1 2 3 2 2 2 2 4 3 3 1 2 3 4 2 3 8 10 8 2 4 5 6 6 3 14 13 32 21 21 18 20 22 13 11 12
2 3 2 2 3 3 3 1 2 2 2 2 1 4 5 3 2 5 2 4 0 1 1 4 6 7 9 10 6 12 11 11 13 20 9 32 20 28 24 20 21 16 12 11 14
4 3 2 2 1 3 2 4 6 2 3 3 3 3 5 6 7 6 3 1 6 3 3 1 5 2 6 10 13 15 9 17 22 20 18 24 30 27 17 8 11 11 9 10 11
0 1 3 1 1 4 5 6 5 2 1 3 3 2 4 7 5 7 7 6 7 7 8 6 4 1 17 2 6 9 13 18 4 5 7 8 20 8 12 9 10 10 9 10 10
Wind_Direction
257 287 300 303 305 311 316 318 325 332 335 333 329 320 334 345 332 53 35 247 300 308 331 325 53 73 54 73 47 131 70 209 227 165 235 138 184 165 87 126 228 202 187 35 125
268 293 302 305 308 311 314 321 324 330 335 331 325 323 335 344 44 37 243 321 317 293 358 49 21 70 48 47 23 88 131 221 200 191 213 187 183 174 170 176 243 244 123 104 138
272 302 313 311 310 314 319 319 323 323 333 327 324 327 331 324 33 258 334 339 350 136 103 107 102 91 89 52 10 159 205 218 231 216 180 189 217 176 172 227 211 208 172 157 162
296 324 317 316 314 304 319 323 322 322 329 320 320 330 329 20 297 264 342 348 65 114 108 107 89 101 130 218 161 286 232 209 333 0 133 180 146 214 201 222 186 210 156 161 175
286 342 334 330 310 311 316 320 324 319 322 322 319 331 311 30 252 331 353 350 70 91 64 24 163 141 190 152 153 197 258 243 316 179 215 135 226 223 243 235 136 121 152 177 188
20 12 317 318 314 312 315 315 315 311 314 314 317 319 45 278 192 360 345 6 39 53 28 30 180 150 109 114 175 119 274 281 268 203 215 222 251 166 259 224 194 173 192 191 194
47 339 322 323 315 309 311 312 305 301 301 304 315 3 53 242 70 337 354 65 49 66 85 29 132 61 122 95 134 117 319 307 225 209 235 180 279 231 224 144 200 215 211 206 211
26 299 322 321 312 306 310 305 303 298 284 281 298 114 242 286 236 333 336 19 28 60 95 106 88 100 60 123 22 12 47 350 252 156 306 126 271 272 217 179 232 226 227 223 217
307 336 331 315 312 308 303 308 297 292 262 209 133 141 270 304 346 353 44 341 336 73 58 88 64 84 55 72 2 9 269 252 312 195 123 184 277 261 117 210 260 238 231 226 232
327 338 329 322 312 313 308 292 299 326 75 141 57 40 310 262 305 340 357 71 74 17 39 51 54 65 37 79 244 272 301 262 245 222 209 235 263 267 242 207 242 247 240 229 230
345 342 335 315 315 326 337 28 15 346 33 201 200 201 274 293 356 313 349 67 71 56 214 18 63 232 233 206 199 216 214 252 254 228 198 233 259 271 265 220 240 242 238 233 230
339 345 332 312 313 335 39 86 158 185 305 215 248 286 235 203 312 275 154 90 83 245 105 9 244 242 217 165 199 225 274 271 285 178 192 293 278 268 268 239 220 231 230 229 231
352 347 331 316 320 46 79 106 279 174 97 303 191 226 224 150 241 266 88 116 170 245 204 186 231 108 176 209 223 242 215 251 244 322 244 311 282 301 283 278 246 241 239 230 222
358 347 338 324 84 248 59 359 36 213 59 281 285 280 123 142 275 195 97 132 18 256 219 236 293 206 236 261 154 286 218 254 293 19 272 20 291 295 304 302 251 251 225 235 226
346 344 330 2 159 103 194 12 122 57 13 237 243 279 204 188 294 333 348 62 202 221 103 255 206 220 236 225 172 233 44 288 308 227 351 295 221 271 345 298 269 251 232 234 230
338 334 316 4 59 325 354 66 49 47 258 282 172 284 315 318 290 32 61 51 83 270 244 244 309 186 212 69 184 88 320 46 56 78 314 255 178 294 264 241 304 295 274 250 239
325 309 341 119 186 355 63 48 41 143 335 251 237 122 251 282 308 95 17 308 194 343 341 322 232 287 172 136 47 73 50 321 339 2 234 150 171 248 265 268 244 279 296 291 270
319 305 14 65 14 64 54 52 184 237 235 329 116 137 229 186 260 353 359 295 209 115 78 280 326 180 179 215 198 179 153 168 271 257 277 114 248 254 250 291 282 275 276 290 283
333 8 45 346 14 70 73 83 213 213 281 338 3 47 312 343 232 3 223 229 230 181 174 161 272 120 191 166 138 161 193 195 246 166 25 250 296 293 311 330 341 325 323 293 285
73 45 358 325 16 67 82 232 237 219 168 88 208 181 241 250 213 68 263 205 230 188 142 215 304 242 298 101 42 155 173 2 15 303 288 282 271 250 312 307 311 323 315 300 292
54 59 266 331 71 57 181 227 274 253 202 181 227 242 231 247 206 220 246 265 206 131 156 150 143 274 48 199 187 107 238 66 134 167 237 290 255 216 259 274 288 294 307 295 294
107 45 295 16 66 39 177 205 275 271 222 272 230 221 218 196 245 244 235 246 53 156 177 183 155 251 234 59 132 150 180 157 140 254 235 229 265 243 261 285 308 291 280 290 271
72 262 331 80 160 247 278 283 239 227 225 179 229 201 185 214 269 202 275 83 71 212 179 178 295 336 330 41 20 227 198 185 126 83 195 266 271 296 291 308 304 294 289 285 287
65 354 330 49 66 146 177 250 260 334 261 187 234 120 132 250 214 264 261 227 198 182 116 131 181 196 246 245 172 209 199 210 190 180 284 229 279 291 292 299 303 303 306 293 282
54 238 204 226 275 179 178 222 209 265 210 186 212 220 183 241 269 234 266 307 148 349 89 157 226 221 249 254 256 256 245 229 219 245 223 280 272 283 289 298 295 302 297 304 306
143 145 14 179 309 174 194 228 197 250 202 256 204 350 179 202 209 266 218 236 244 41 195 18 269 294 266 232 240 263 251 241 247 261 255 262 277 275 278 279 311 297 307 308 307
83 350 107 292 152 126 220 210 181 176 267 146 110 328 265 242 220 235 213 218 221 184 206 180 199 139 280 321 289 285 226 235 215 194 207 247 261 313 323 321 324 316 303 285 281